Prescott, AZ

6:36 PM MST on December 06, 2019 (GMT -0700)
Love

Weather History for KPRC - November, 2019

Change the Weather History Date:

Friday, November 15, 2019

  Actual Average Record
Temperature  
Mean Temperature 55 °F 46 °F  
Max Temperature 71 °F 61 °F 79 °F (2016)
Min Temperature 39 °F 32 °F 15 °F (1956)
Degree Days  
Heating Degree Days 10    
Month to date heating degree days 171  
Since 1 July heating degree days 490  
Cooling Degree Days 0    
Month to date cooling degree days 0  
Year to date cooling degree days 1130  
Growing Degree Days 5 (Base 50)    
Moisture  
Dew Point 27 °F    
Average Humidity 40    
Maximum Humidity 60    
Minimum Humidity 17    
Precipitation  
Precipitation 0.00 in 0.03 in 0.45 in (1993)
Month to date precipitation 0.26 0.43  
Year to date precipitation 10.55 12.52  
Sea Level Pressure  
Sea Level Pressure 30.08 in    
Wind  
Wind Speed 4 mph ()    
Max Wind Speed 12 mph    
Max Gust Speed 15 mph    
Visibility 9.8 miles    
Events      
T = Trace of Precipitation, MM = Missing Value Source: Averaged Metar Reports

Daily Weather History Graph

Daily Weather History Graph

Search for Another Location

Airport or City:

Astronomy

Nov. 15, 2019 Rise Set
Actual Time 7:03 AM MST 5:24 PM MST
Civil Twilight 6:36 AM MST 5:51 PM MST
Nautical Twilight 6:06 AM MST 6:22 PM MST
Astronomical Twilight 5:36 AM MST 6:51 PM MST
Moon 8:08 PM MST (11/15) 9:59 AM MST (11/15)
Length of Visible Light 11h 15m
Length of Day
10h 21m
Waning Gibbous, 89% of the Moon is Illuminated
Nov 15
Waning Gibbous
Nov 19
Last Quarter
Nov 26
New
Dec 3
First Quarter
Dec 11
Full

Hourly Weather History & Observations

Time (MST) Temp. Windchill Dew Point Humidity Pressure Visibility Wind Dir Wind Speed Gust Speed Precip Events Conditions
12:53 AM 45.0 °F - 28.9 °F 53% 30.11 in 9.0 mi Calm Calm - N/A   Clear
1:53 AM 44.1 °F 40.8 °F 28.9 °F 55% 30.10 in 6.0 mi SSW 5.8 mph - N/A   Haze
2:53 AM 42.1 °F 40.2 °F 27.0 °F 55% 30.11 in 10.0 mi South 3.5 mph - N/A   Clear
3:53 AM 41.0 °F 38.0 °F 27.0 °F 57% 30.10 in 10.0 mi South 4.6 mph - N/A   Clear
4:53 AM 39.9 °F 35.1 °F 27.0 °F 60% 30.10 in 10.0 mi South 6.9 mph - N/A   Clear
5:53 AM 41.0 °F 38.0 °F 26.1 °F 55% 30.11 in 10.0 mi South 4.6 mph - N/A   Clear
6:53 AM 39.9 °F 36.7 °F 26.1 °F 58% 30.15 in 10.0 mi South 4.6 mph - N/A   Smoke
7:53 AM 43.0 °F 40.3 °F 27.0 °F 53% 30.15 in 10.0 mi South 4.6 mph - N/A   Smoke
8:53 AM 48.0 °F - 28.0 °F 46% 30.17 in 10.0 mi NW 3.5 mph - N/A   Smoke
9:53 AM 57.9 °F - 28.0 °F 32% 30.14 in 10.0 mi Variable 3.5 mph - N/A   Smoke
10:53 AM 64.0 °F - 28.0 °F 26% 30.12 in 10.0 mi North 6.9 mph - N/A   Smoke
11:53 AM 66.9 °F - 26.1 °F 21% 30.10 in 10.0 mi North 6.9 mph - N/A   Smoke
12:53 PM 69.1 °F - 25.0 °F 19% 30.06 in 10.0 mi NE 5.8 mph - N/A   Smoke
1:53 PM 70.0 °F - 24.1 °F 18% 30.03 in 10.0 mi East 5.8 mph - N/A   Smoke
2:53 PM 71.1 °F - 25.0 °F 18% 30.01 in 10.0 mi East 8.1 mph - N/A   Smoke
3:53 PM 69.1 °F - 26.1 °F 20% 30.01 in 10.0 mi Variable 5.8 mph - N/A   Smoke
4:53 PM 66.9 °F - 27.0 °F 22% 30.01 in 10.0 mi SE 10.4 mph - N/A   Smoke
5:53 PM 62.1 °F - 27.0 °F 26% 30.03 in 10.0 mi SSE 10.4 mph - N/A   Smoke
6:53 PM 57.9 °F - 28.0 °F 32% 30.05 in 10.0 mi South 4.6 mph - N/A   Smoke
7:53 PM 52.0 °F - 28.0 °F 40% 30.06 in 10.0 mi South 5.8 mph - N/A   Smoke
8:53 PM 46.9 °F - 28.0 °F 48% 30.06 in 10.0 mi SSW 3.5 mph - N/A   Smoke
9:53 PM 46.0 °F 43.1 °F 28.0 °F 50% 30.05 in 10.0 mi South 5.8 mph - N/A   Smoke
10:53 PM 44.1 °F 40.8 °F 28.0 °F 53% 30.04 in 10.0 mi South 5.8 mph - N/A   Smoke
11:53 PM 46.0 °F 41.9 °F 27.0 °F 47% 30.01 in 10.0 mi SSW 8.1 mph - N/A   Smoke